Home   Weather   Moreno Valley   Past weeks

Flag for USA Past Weather in Moreno Valley, California, USA — Yesterday and Last 2 Weeks

Now
87 °F

Broken clouds.


Feels Like: 86 °F
Forecast: 65 / 89 °F
Wind: 9 mph from Northwest

Location: Riverside / March Air Force Base

Current Time: Jul 25, 2017 at 2:05:05 pm

Latest Report: Jul 25, 2017 at 12:58 pm


Visibility: 10 mi

Pressure: 29.94 "Hg

Humidity: 35%

Dew Point: 56 °F

Location of Moreno ValleyLocation

Past Weather in Moreno Valley — Graph

°F

Moreno Valley Temperature Yesterday

Maximum temperature yesterday: 82 °F (at 5:58 pm)
Minimum temperature yesterday: 65 °F (at 4:58 am)
Average temperature yesterday: 73 °F

High & Low Weather Summary for the Past Weeks

 TemperatureHumidityPressure
High100 °F (Jul 15, 1:58 pm)100% (Jul 22, 5:58 am)30.03 "Hg (Jul 22, 5:58 am)
Low59 °F (Jul 21, 5:58 am)19% (Jul 15, 1:58 pm)29.77 "Hg (Jul 23, 4:58 pm)
Average79 °F53%29.91 "Hg
* Reported Jul 10 12:58 pm — Jul 25 12:58 pm, Moreno Valley. Weather by CustomWeather, © 2017

Note: Actual official high and low records may vary slightly from our data, if they occured in-between our weather recording intervals... More about our weather records

Advertising

Moreno Valley Weather History for the Previous 24 Hours

Scroll right to see more
 ConditionsComfort  
Time TempWeatherWind HumidityBarometerVisibility
12:58 pm
Tue, Jul 25
87 °FBroken clouds.9 mph35%29.94 "Hg10 mi
11:58 am83 °FPassing clouds.5 mph47%29.95 "Hg10 mi
10:58 am80 °FPassing clouds.5 mph49%29.96 "Hg10 mi
9:58 am77 °FPassing clouds.No wind59%29.96 "Hg10 mi
8:58 am74 °FPartly sunny.5 mph67%29.96 "Hg10 mi
7:58 am71 °FScattered clouds.5 mph75%29.96 "Hg10 mi
6:58 am68 °FBroken clouds.No wind80%29.94 "Hg10 mi
5:58 am67 °FMore clouds than sun.No wind80%29.92 "Hg10 mi
4:58 am67 °FOvercast.No wind77%29.92 "Hg10 mi
3:58 am67 °FOvercast.6 mph77%29.92 "Hg10 mi
2:58 am68 °FOvercast.3 mph67%29.92 "Hg10 mi
1:58 am66 °FPassing clouds.3 mph70%29.93 "Hg10 mi
12:58 am69 °FOvercast.No wind75%29.93 "Hg10 mi
11:58 pm
Mon, Jul 24
70 °FPassing clouds.3 mph79%29.93 "Hg10 mi
10:58 pm71 °FPassing clouds.3 mph81%29.92 "Hg10 mi
9:58 pm71 °FClear.No wind81%29.92 "Hg10 mi
8:58 pm72 °FPassing clouds.6 mph77%29.88 "Hg10 mi
7:58 pm74 °FPassing clouds.10 mph70%29.86 "Hg10 mi
6:58 pm80 °FPassing clouds.10 mph57%29.85 "Hg10 mi
5:58 pm82 °FSunny.10 mph48%29.84 "Hg10 mi
4:58 pm81 °FSunny.10 mph42%29.84 "Hg10 mi
3:58 pm81 °FScattered clouds.9 mph45%29.85 "Hg10 mi
2:58 pm81 °FScattered clouds.10 mph45%29.87 "Hg10 mi
Weather by CustomWeather, © 2017

See weather overviewHow to use our weather pages